Location: Unspecified
(33.9239°N, 118.0544°W)
Time: 04:59:57
(UTC-07:00)

Cosmos 1674 - Visible Passes

Search period start: 24 October 2014 00:00
Search period end: 02 November 2014 23:00
Orbit: 514 x 540 km, 82.5° (Epoch: 23 October)

Date Brightness Start Highest point End Pass type
(mag) Time Alt. Az. Time Alt. Az. Time Alt. Az.
24 Oct 4.0 05:30:47 10° SSE 05:34:30 43° E 05:38:17 10° NNE visible
25 Oct 4.2 05:19:29 10° SSE 05:23:08 39° E 05:26:50 10° NNE visible
26 Oct 4.4 05:08:11 10° SSE 05:11:46 35° E 05:15:23 10° NNE visible
27 Oct 4.6 04:56:52 10° SSE 05:00:22 31° E 05:03:53 10° NNE visible
27 Oct 4.5 06:34:22 10° WSW 06:36:22 14° WNW 06:38:23 10° NW visible
28 Oct 4.7 04:46:38 16° SE 04:48:58 28° E 04:52:22 10° NNE visible
28 Oct 4.4 06:22:36 10° WSW 06:24:55 15° WNW 06:27:14 10° NW visible
29 Oct 5.2 04:39:08 20° NE 04:39:08 20° NE 04:40:49 10° NE visible
29 Oct 4.5 06:14:32 15° NW 06:14:32 15° NW 06:16:01 10° NW visible
